| time (UTC) | temp F | wind direction | speed MPH | gust MPH | rain 1hr in | rain 24hr in | rain mn in | humidity % | barometer mb |
| 20260902204558 | 57 | 271 | 0.0 | 0.0 | 0.00 | 0.00 | 0.00 | 83 | 1019.6 |
| 20260902204054 | 57 | 271 | 0.0 | 0.0 | 0.00 | 0.00 | 0.00 | 82 | 1019.6 |
| 20260902203539 | 57 | 271 | 0.0 | 0.0 | 0.00 | 0.00 | 0.00 | 82 | 1019.6 |
| 20260902203052 | 57 | 271 | 0.0 | 0.0 | 0.00 | 0.00 | 0.00 | 82 | 1019.7 |
| 20260902202558 | 58 | 271 | 0.0 | 0.0 | 0.00 | 0.00 | 0.00 | 82 | 1019.7 |
| 20260902202504 | 58 | 271 | 0.0 | 0.0 | 0.00 | 0.00 | 0.00 | 81 | 1019.7 |
| 20260902202040 | 58 | 271 | 0.0 | 0.0 | 0.00 | 0.00 | 0.00 | 81 | 1019.8 |
| 20260902201531 | 58 | 271 | 0.0 | 0.0 | 0.00 | 0.00 | 0.00 | 81 | 1019.8 |
| 20260902201031 | 58 | 271 | 0.0 | 0.0 | 0.00 | 0.00 | 0.00 | 81 | 1019.8 |
| 20260902200514 | 58 | 271 | 0.0 | 0.0 | 0.00 | 0.00 | 0.00 | 81 | 1019.8 |
| 20260902200052 | 59 | 271 | 0.0 | 0.0 | 0.00 | 0.00 | 0.00 | 81 | 1019.7 |
| 20260902195508 | 59 | 271 | 0.0 | 0.0 | 0.00 | 0.00 | 0.00 | 81 | 1019.8 |
| 20260902195014 | 59 | 271 | 0.0 | 1.0 | 0.00 | 0.00 | 0.00 | 80 | 1019.6 |
| 20260902194534 | 59 | 271 | 0.0 | 1.0 | 0.00 | 0.00 | 0.00 | 80 | 1019.6 |
| 20260902194101 | 60 | 271 | 0.0 | 0.0 | 0.00 | 0.00 | 0.00 | 80 | 1019.6 |
| 20260902193547 | 60 | 271 | 0.0 | 0.0 | 0.00 | 0.00 | 0.00 | 80 | 1019.6 |
| 20260902193052 | 60 | 271 | 0.0 | 0.0 | 0.00 | 0.00 | 0.00 | 79 | 1019.5 |
| 20260902192501 | 61 | 271 | 0.0 | 1.0 | 0.00 | 0.00 | 0.00 | 79 | 1019.6 |
| 20260902192039 | 61 | 271 | 0.0 | 1.0 | 0.00 | 0.00 | 0.00 | 79 | 1019.6 |
| 20260902191522 | 61 | 271 | 0.0 | 0.0 | 0.00 | 0.00 | 0.00 | 79 | 1019.7 |
| 20260902191034 | 62 | 271 | 0.0 | 0.0 | 0.00 | 0.00 | 0.00 | 78 | 1019.6 |
| 20260902190542 | 62 | 271 | 0.0 | 0.0 | 0.00 | 0.00 | 0.00 | 78 | 1019.5 |
| 20260902190024 | 62 | 271 | 0.0 | 0.0 | 0.00 | 0.00 | 0.00 | 78 | 1019.5 |
| 20260902185506 | 62 | 271 | 0.0 | 0.0 | 0.00 | 0.00 | 0.00 | 76 | 1019.5 |
| 20260902185016 | 63 | 271 | 0.0 | 0.0 | 0.00 | 0.00 | 0.00 | 76 | 1019.5 |
| 20260902184522 | 63 | 271 | 0.0 | 0.0 | 0.00 | 0.00 | 0.00 | 76 | 1019.5 |
| 20260902184030 | 63 | 271 | 0.0 | 0.0 | 0.00 | 0.00 | 0.00 | 76 | 1019.5 |
| 20260902183512 | 64 | 271 | 0.0 | 0.0 | 0.00 | 0.00 | 0.00 | 75 | 1019.5 |
| 20260902183022 | 64 | 271 | 0.0 | 0.0 | 0.00 | 0.00 | 0.00 | 75 | 1019.5 |
| 20260902182534 | 64 | 271 | 0.0 | 0.0 | 0.00 | 0.00 | 0.00 | 74 | 1019.3 |
| 20260902182042 | 64 | 271 | 0.0 | 0.0 | 0.00 | 0.00 | 0.00 | 73 | 1019.3 |
| 20260902181524 | 65 | 271 | 0.0 | 0.0 | 0.00 | 0.00 | 0.00 | 73 | 1019.3 |
| 20260902181040 | 65 | 271 | 0.0 | 0.0 | 0.00 | 0.00 | 0.00 | 72 | 1019.3 |
| 20260902180546 | 65 | 271 | 0.0 | 0.0 | 0.00 | 0.00 | 0.00 | 71 | 1019.2 |
| 20260902180049 | 66 | 271 | 0.0 | 0.0 | 0.00 | 0.00 | 0.00 | 70 | 1019.2 |
| 20260902175541 | 66 | 271 | 0.0 | 0.0 | 0.00 | 0.00 | 0.00 | 69 | 1019.1 |
| 20260902175046 | 66 | 271 | 0.0 | 1.0 | 0.00 | 0.00 | 0.00 | 69 | 1019.1 |
| 20260902174557 | 67 | 271 | 0.0 | 1.0 | 0.00 | 0.00 | 0.00 | 68 | 1019.1 |
| 20260902174006 | 67 | 271 | 0.0 | 0.0 | 0.00 | 0.00 | 0.00 | 67 | 1019.1 |
| 20260902173542 | 67 | 271 | 0.0 | 0.0 | 0.00 | 0.00 | 0.00 | 66 | 1019.2 |
| 20260902173023 | 68 | 271 | 0.0 | 0.0 | 0.00 | 0.00 | 0.00 | 66 | 1019.2 |
| 20260902172533 | 68 | 271 | 0.0 | 0.0 | 0.00 | 0.00 | 0.00 | 65 | 1019.2 |
| 20260902172046 | 68 | 271 | 0.0 | 1.0 | 0.00 | 0.00 | 0.00 | 65 | 1019.2 |
| 20260902171524 | 68 | 271 | 0.0 | 2.0 | 0.00 | 0.00 | 0.00 | 64 | 1019.2 |
| 20260902171005 | 68 | 271 | 0.0 | 3.0 | 0.00 | 0.00 | 0.00 | 64 | 1019.2 |
| 20260902170513 | 68 | 271 | 0.0 | 4.0 | 0.00 | 0.00 | 0.00 | 64 | 1019.3 |
| 20260902170030 | 69 | 259 | 2.0 | 4.0 | 0.00 | 0.00 | 0.00 | 63 | 1019.3 |
| 20260902165527 | 69 | 236 | 2.0 | 4.0 | 0.00 | 0.00 | 0.00 | 63 | 1019.4 |
| 20260902165011 | 69 | 275 | 2.0 | 6.0 | 0.00 | 0.00 | 0.00 | 63 | 1019.4 |
| 20260902164553 | 69 | 263 | 2.0 | 6.0 | 0.00 | 0.00 | 0.00 | 63 | 1019.4 |
| 20260902164056 | 69 | 252 | 2.0 | 6.0 | 0.00 | 0.00 | 0.00 | 62 | 1019.3 |
| 20260902163508 | 69 | 259 | 3.0 | 6.0 | 0.00 | 0.00 | 0.00 | 61 | 1019.3 |
| 20260902163011 | 69 | 265 | 2.0 | 7.0 | 0.00 | 0.00 | 0.00 | 61 | 1019.3 |
| 20260902162521 | 69 | 281 | 3.0 | 7.0 | 0.00 | 0.00 | 0.00 | 61 | 1019.2 |
| 20260902162025 | 70 | 269 | 4.0 | 7.0 | 0.00 | 0.00 | 0.00 | 60 | 1019.3 |
| 20260902161559 | 70 | 257 | 3.0 | 7.0 | 0.00 | 0.00 | 0.00 | 59 | 1019.2 |
| 20260902161520 | 70 | 242 | 3.0 | 7.0 | 0.00 | 0.00 | 0.00 | 59 | 1019.2 |
| 20260902161042 | 70 | 269 | 4.0 | 9.0 | 0.00 | 0.00 | 0.00 | 58 | 1019.2 |
| 20260902160525 | 71 | 274 | 5.0 | 10.0 | 0.00 | 0.00 | 0.00 | 57 | 1019.2 |
| 20260902160028 | 72 | 238 | 5.0 | 10.0 | 0.00 | 0.00 | 0.00 | 57 | 1019.3 |
| 20260902155533 | 72 | 281 | 6.0 | 9.0 | 0.00 | 0.00 | 0.00 | 57 | 1019.3 |
| 20260902155045 | 72 | 285 | 2.0 | 10.0 | 0.00 | 0.00 | 0.00 | 57 | 1019.4 |
| 20260902154547 | 72 | 216 | 5.0 | 10.0 | 0.00 | 0.00 | 0.00 | 57 | 1019.4 |
| 20260902154027 | 72 | 309 | 1.0 | 12.0 | 0.00 | 0.00 | 0.00 | 58 | 1019.4 |
| 20260902153509 | 71 | 324 | 2.0 | 12.0 | 0.00 | 0.00 | 0.00 | 58 | 1019.5 |
| 20260902153050 | 71 | 250 | 5.0 | 11.0 | 0.00 | 0.00 | 0.00 | 57 | 1019.5 |
| 20260902152557 | 71 | 264 | 7.0 | 11.0 | 0.00 | 0.00 | 0.00 | 57 | 1019.4 |
| 20260902152006 | 71 | 263 | 2.0 | 5.0 | 0.00 | 0.00 | 0.00 | 59 | 1019.6 |
| 20260902151512 | 70 | 278 | 2.0 | 8.0 | 0.00 | 0.00 | 0.00 | 60 | 1019.6 |
| 20260902151048 | 70 | 265 | 4.0 | 9.0 | 0.00 | 0.00 | 0.00 | 60 | 1019.6 |
| 20260902150525 | 70 | 247 | 5.0 | 11.0 | 0.00 | 0.00 | 0.00 | 59 | 1019.6 |
| 20260902150017 | 71 | 255 | 6.0 | 11.0 | 0.00 | 0.00 | 0.00 | 58 | 1019.6 |
| 20260902145516 | 71 | 256 | 5.0 | 11.0 | 0.00 | 0.00 | 0.00 | 57 | 1019.5 |
| 20260902145025 | 72 | 276 | 4.0 | 10.0 | 0.00 | 0.00 | 0.00 | 58 | 1019.6 |
| 20260902144533 | 71 | 287 | 5.0 | 9.0 | 0.00 | 0.00 | 0.00 | 58 | 1019.7 |
| 20260902144039 | 71 | 238 | 5.0 | 9.0 | 0.00 | 0.00 | 0.00 | 58 | 1019.6 |
| 20260902143523 | 71 | 39 | 2.0 | 7.0 | 0.00 | 0.00 | 0.00 | 58 | 1019.7 |
| 20260902143030 | 71 | 303 | 3.0 | 8.0 | 0.00 | 0.00 | 0.00 | 58 | 1019.7 |
| 20260902142536 | 71 | 291 | 4.0 | 9.0 | 0.00 | 0.00 | 0.00 | 59 | 1019.8 |
| 20260902142047 | 71 | 271 | 6.0 | 9.0 | 0.00 | 0.00 | 0.00 | 55 | 1019.9 |
| 20260902141549 | 71 | 239 | 3.0 | 8.0 | 0.00 | 0.00 | 0.00 | 56 | 1019.9 |
| 20260902141031 | 71 | 235 | 4.0 | 8.0 | 0.00 | 0.00 | 0.00 | 58 | 1019.8 |
| 20260902140544 | 70 | 235 | 2.0 | 11.0 | 0.00 | 0.00 | 0.00 | 58 | 1020.0 |
| 20260902140047 | 70 | 232 | 3.0 | 11.0 | 0.00 | 0.00 | 0.00 | 58 | 1019.9 |
| 20260902135549 | 70 | 274 | 1.0 | 7.0 | 0.00 | 0.00 | 0.00 | 59 | 1020.0 |
| 20260902135032 | 70 | 173 | 2.0 | 10.0 | 0.00 | 0.00 | 0.00 | 58 | 1020.0 |
| 20260902134513 | 70 | 210 | 5.0 | 10.0 | 0.00 | 0.00 | 0.00 | 59 | 1020.1 |
| 20260902134021 | 70 | 263 | 2.0 | 10.0 | 0.00 | 0.00 | 0.00 | 61 | 1020.1 |
| 20260902133532 | 69 | 275 | 7.0 | 10.0 | 0.00 | 0.00 | 0.00 | 58 | 1020.2 |
| 20260902133015 | 69 | 274 | 5.0 | 9.0 | 0.00 | 0.00 | 0.00 | 59 | 1020.3 |
| 20260902132550 | 69 | 259 | 2.0 | 10.0 | 0.00 | 0.00 | 0.00 | 59 | 1020.3 |
| 20260902132058 | 69 | 246 | 3.0 | 11.0 | 0.00 | 0.00 | 0.00 | 59 | 1020.3 |
| 20260902131507 | 69 | 288 | 3.0 | 9.0 | 0.00 | 0.00 | 0.00 | 60 | 1020.5 |
| 20260902131016 | 69 | 241 | 5.0 | 10.0 | 0.00 | 0.00 | 0.00 | 60 | 1020.4 |
| 20260902130556 | 69 | 295 | 4.0 | 11.0 | 0.00 | 0.00 | 0.00 | 59 | 1020.4 |
| 20260902130007 | 69 | 264 | 5.0 | 12.0 | 0.00 | 0.00 | 0.00 | 61 | 1020.4 |
| 20260902125509 | 69 | 250 | 8.0 | 12.0 | 0.00 | 0.00 | 0.00 | 61 | 1020.4 |
| 20260902125017 | 69 | 246 | 6.0 | 10.0 | 0.00 | 0.00 | 0.00 | 61 | 1020.4 |
| 20260902124557 | 69 | 258 | 3.0 | 11.0 | 0.00 | 0.00 | 0.00 | 62 | 1020.5 |
| 20260902124007 | 69 | 299 | 5.0 | 10.0 | 0.00 | 0.00 | 0.00 | 61 | 1020.4 |
| 20260902123513 | 70 | 234 | 4.0 | 10.0 | 0.00 | 0.00 | 0.00 | 61 | 1020.4 |
| 20260902123021 | 70 | 236 | 5.0 | 9.0 | 0.00 | 0.00 | 0.00 | 61 | 1020.5 |
| 20260902122532 | 69 | 262 | 2.0 | 8.0 | 0.00 | 0.00 | 0.00 | 61 | 1020.6 |
| 20260902122041 | 69 | 179 | 4.0 | 8.0 | 0.00 | 0.00 | 0.00 | 62 | 1020.6 |
| 20260902121523 | 69 | 201 | 3.0 | 10.0 | 0.00 | 0.00 | 0.00 | 62 | 1020.7 |
| 20260902121033 | 69 | 232 | 5.0 | 11.0 | 0.00 | 0.00 | 0.00 | 62 | 1020.8 |
| 20260902120547 | 69 | 180 | 6.0 | 11.0 | 0.00 | 0.00 | 0.00 | 61 | 1020.7 |
| 20260902120049 | 69 | 271 | 6.0 | 11.0 | 0.00 | 0.00 | 0.00 | 61 | 1020.8 |
| 20260902115553 | 69 | 236 | 4.0 | 7.0 | 0.00 | 0.00 | 0.00 | 61 | 1020.8 |
| 20260902115503 | 69 | 250 | 4.0 | 7.0 | 0.00 | 0.00 | 0.00 | 61 | 1020.8 |
| 20260902115035 | 69 | 179 | 3.0 | 10.0 | 0.00 | 0.00 | 0.00 | 62 | 1020.7 |
| 20260902114519 | 69 | 244 | 3.0 | 10.0 | 0.00 | 0.00 | 0.00 | 61 | 1020.6 |
| 20260902114028 | 69 | 286 | 5.0 | 9.0 | 0.00 | 0.00 | 0.00 | 60 | 1020.7 |
| 20260902113533 | 69 | 267 | 3.0 | 10.0 | 0.00 | 0.00 | 0.00 | 60 | 1020.6 |
| 20260902113055 | 69 | 242 | 5.0 | 10.0 | 0.00 | 0.00 | 0.00 | 60 | 1020.6 |
| 20260902112547 | 70 | 284 | 3.0 | 14.0 | 0.00 | 0.00 | 0.00 | 59 | 1020.7 |
| 20260902112029 | 70 | 236 | 8.0 | 14.0 | 0.00 | 0.00 | 0.00 | 57 | 1020.9 |
| 20260902111511 | 70 | 254 | 4.0 | 9.0 | 0.00 | 0.00 | 0.00 | 59 | 1020.8 |
| 20260902111023 | 70 | 290 | 5.0 | 9.0 | 0.00 | 0.00 | 0.00 | 59 | 1020.9 |
| 20260902110527 | 70 | 256 | 5.0 | 11.0 | 0.00 | 0.00 | 0.00 | 57 | 1021.0 |
| 20260902110035 | 70 | 260 | 6.0 | 11.0 | 0.00 | 0.00 | 0.00 | 58 | 1020.9 |
| 20260902105541 | 70 | 271 | 3.0 | 8.0 | 0.00 | 0.00 | 0.00 | 58 | 1020.9 |
| 20260902105028 | 70 | 257 | 5.0 | 11.0 | 0.00 | 0.00 | 0.00 | 59 | 1020.9 |
| 20260902104503 | 70 | 204 | 6.0 | 11.0 | 0.00 | 0.00 | 0.00 | 60 | 1020.8 |
| 20260902104009 | 70 | 207 | 2.0 | 10.0 | 0.00 | 0.00 | 0.00 | 60 | 1020.8 |
| 20260902103519 | 69 | 240 | 4.0 | 10.0 | 0.00 | 0.00 | 0.00 | 62 | 1020.7 |
| 20260902103025 | 69 | 226 | 3.0 | 9.0 | 0.00 | 0.00 | 0.00 | 62 | 1020.9 |
| 20260902102507 | 69 | 243 | 3.0 | 10.0 | 0.00 | 0.00 | 0.00 | 63 | 1020.8 |
| 20260902102048 | 69 | 248 | 6.0 | 10.0 | 0.00 | 0.00 | 0.00 | 62 | 1020.9 |
| 20260902101555 | 69 | 317 | 2.0 | 9.0 | 0.00 | 0.00 | 0.00 | 63 | 1021.0 |
| 20260902101008 | 68 | 314 | 5.0 | 8.0 | 0.00 | 0.00 | 0.00 | 64 | 1021.0 |
| 20260902100513 | 68 | 256 | 4.0 | 10.0 | 0.00 | 0.00 | 0.00 | 64 | 1021.1 |
| 20260902100049 | 68 | 294 | 2.0 | 11.0 | 0.00 | 0.00 | 0.00 | 64 | 1021.1 |
| 20260902095538 | 68 | 276 | 6.0 | 11.0 | 0.00 | 0.00 | 0.00 | 62 | 1021.0 |
| 20260902095045 | 68 | 269 | 3.0 | 10.0 | 0.00 | 0.00 | 0.00 | 64 | 1021.0 |
| 20260902094551 | 68 | 298 | 4.0 | 11.0 | 0.00 | 0.00 | 0.00 | 64 | 1021.2 |
| 20260902094053 | 68 | 219 | 6.0 | 12.0 | 0.00 | 0.00 | 0.00 | 65 | 1021.1 |
| 20260902094001 | 68 | 285 | 6.0 | 12.0 | 0.00 | 0.00 | 0.00 | 65 | 1021.1 |
| 20260902093535 | 68 | 254 | 6.0 | 12.0 | 0.00 | 0.00 | 0.00 | 64 | 1021.2 |
| 20260902093023 | 68 | 286 | 4.0 | 11.0 | 0.00 | 0.00 | 0.00 | 66 | 1021.0 |
| 20260902092526 | 67 | 306 | 2.0 | 5.0 | 0.00 | 0.00 | 0.00 | 68 | 1021.0 |
| 20260902092035 | 67 | 300 | 2.0 | 10.0 | 0.00 | 0.00 | 0.00 | 68 | 1021.1 |
| 20260902091546 | 66 | 239 | 3.0 | 10.0 | 0.00 | 0.00 | 0.00 | 68 | 1021.2 |
| 20260902091044 | 67 | 271 | 6.0 | 10.0 | 0.00 | 0.00 | 0.00 | 68 | 1021.3 |
| 20260902090527 | 67 | 258 | 3.0 | 7.0 | 0.00 | 0.00 | 0.00 | 67 | 1021.1 |
| 20260902090009 | 68 | 252 | 4.0 | 7.0 | 0.00 | 0.00 | 0.00 | 68 | 1021.2 |
| 20260902085518 | 68 | 276 | 1.0 | 5.0 | 0.00 | 0.00 | 0.00 | 70 | 1021.1 |
| 20260902085022 | 67 | 240 | 2.0 | 5.0 | 0.00 | 0.00 | 0.00 | 69 | 1021.1 |
| 20260902084531 | 67 | 262 | 1.0 | 7.0 | 0.00 | 0.00 | 0.00 | 72 | 1021.0 |
| 20260902084038 | 67 | 270 | 1.0 | 8.0 | 0.00 | 0.00 | 0.00 | 72 | 1021.1 |
| 20260902083540 | 67 | 259 | 4.0 | 8.0 | 0.00 | 0.00 | 0.00 | 72 | 1021.3 |
| 20260902083022 | 67 | 250 | 4.0 | 10.0 | 0.00 | 0.00 | 0.00 | 72 | 1021.3 |
| 20260902082503 | 67 | 286 | 3.0 | 9.0 | 0.00 | 0.00 | 0.00 | 72 | 1021.2 |
| 20260902082011 | 67 | 261 | 1.0 | 8.0 | 0.00 | 0.00 | 0.00 | 73 | 1021.3 |
| 20260902081522 | 67 | 273 | 3.0 | 8.0 | 0.00 | 0.00 | 0.00 | 72 | 1021.2 |
| 20260902081027 | 66 | 210 | 1.0 | 4.0 | 0.00 | 0.00 | 0.00 | 73 | 1021.1 |
| 20260902080533 | 66 | 128 | 1.0 | 5.0 | 0.00 | 0.00 | 0.00 | 73 | 1021.0 |
| 20260902080012 | 66 | 246 | 3.0 | 5.0 | 0.00 | 0.00 | 0.00 | 74 | 1020.9 |
| 20260902075556 | 65 | 283 | 0.0 | 7.0 | 0.00 | 0.00 | 0.00 | 77 | 1020.8 |
| 20260902075003 | 65 | 229 | 2.0 | 7.0 | 0.00 | 0.00 | 0.00 | 77 | 1020.9 |
| 20260902074511 | 64 | 265 | 1.0 | 8.0 | 0.00 | 0.00 | 0.00 | 78 | 1021.0 |
| 20260902074046 | 64 | 240 | 3.0 | 8.0 | 0.00 | 0.00 | 0.00 | 78 | 1021.0 |
| 20260902073526 | 64 | 152 | 1.0 | 4.0 | 0.00 | 0.00 | 0.00 | 80 | 1021.0 |
| 20260902073037 | 63 | 151 | 1.0 | 7.0 | 0.00 | 0.00 | 0.00 | 81 | 1020.9 |
| 20260902072547 | 63 | 250 | 3.0 | 7.0 | 0.00 | 0.00 | 0.00 | 83 | 1021.1 |
| 20260902072050 | 62 | 259 | 3.0 | 9.0 | 0.00 | 0.00 | 0.00 | 84 | 1020.9 |
| 20260902071557 | 61 | 257 | 3.0 | 9.0 | 0.00 | 0.00 | 0.00 | 85 | 1021.0 |
| 20260902071005 | 61 | 270 | 4.0 | 8.0 | 0.00 | 0.00 | 0.00 | 86 | 1021.0 |
| 20260902070510 | 60 | 260 | 5.0 | 8.0 | 0.00 | 0.00 | 0.00 | 87 | 1021.1 |
| 20260902070050 | 60 | 272 | 4.0 | 8.0 | 0.00 | 0.00 | 0.00 | 87 | 1021.1 |
| 20260902065502 | 60 | 257 | 3.0 | 9.0 | 0.00 | 0.00 | 0.00 | 87 | 1021.2 |
| 20260902065010 | 60 | 265 | 4.0 | 10.0 | 0.00 | 0.00 | 0.00 | 88 | 1021.1 |
| 20260902064519 | 59 | 264 | 7.0 | 10.0 | 0.00 | 0.00 | 0.00 | 88 | 1021.2 |
| 20260902064025 | 59 | 258 | 3.0 | 8.0 | 0.00 | 0.00 | 0.00 | 88 | 1021.2 |
| 20260902063532 | 59 | 306 | 4.0 | 8.0 | 0.00 | 0.00 | 0.00 | 88 | 1021.1 |
| 20260902063047 | 59 | 259 | 3.0 | 7.0 | 0.00 | 0.00 | 0.00 | 89 | 1021.1 |
| 20260902062549 | 59 | 238 | 3.0 | 9.0 | 0.00 | 0.00 | 0.00 | 89 | 1021.1 |
| 20260902062037 | 59 | 271 | 5.0 | 12.0 | 0.00 | 0.00 | 0.00 | 89 | 1021.1 |
| 20260902061548 | 59 | 267 | 5.0 | 12.0 | 0.00 | 0.00 | 0.00 | 90 | 1021.1 |
| 20260902061051 | 59 | 246 | 4.0 | 9.0 | 0.00 | 0.00 | 0.00 | 91 | 1021.0 |
| 20260902060555 | 58 | 248 | 5.0 | 10.0 | 0.00 | 0.00 | 0.00 | 91 | 1021.0 |
| 20260902060040 | 58 | 279 | 5.0 | 10.0 | 0.00 | 0.00 | 0.00 | 92 | 1021.0 |
| 20260902055548 | 58 | 211 | 5.0 | 8.0 | 0.00 | 0.00 | 0.00 | 92 | 1020.9 |
| 20260902055054 | 57 | 253 | 2.0 | 7.0 | 0.00 | 0.00 | 0.00 | 92 | 1020.8 |
| 20260902054538 | 57 | 243 | 1.0 | 8.0 | 0.00 | 0.00 | 0.00 | 92 | 1020.9 |
| 20260902054023 | 57 | 263 | 2.0 | 8.0 | 0.00 | 0.00 | 0.00 | 92 | 1020.9 |
| 20260902053530 | 57 | 221 | 3.0 | 8.0 | 0.00 | 0.00 | 0.00 | 92 | 1020.8 |
| 20260902053033 | 57 | 228 | 3.0 | 8.0 | 0.00 | 0.00 | 0.00 | 93 | 1020.7 |
| 20260902052512 | 57 | 221 | 3.0 | 9.0 | 0.00 | 0.00 | 0.00 | 93 | 1020.8 |
| 20260902052052 | 56 | 271 | 4.0 | 9.0 | 0.00 | 0.00 | 0.00 | 92 | 1020.7 |
| 20260902051502 | 56 | 248 | 2.0 | 5.0 | 0.00 | 0.00 | 0.00 | 92 | 1020.6 |
| 20260902051010 | 56 | 232 | 2.0 | 5.0 | 0.00 | 0.00 | 0.00 | 92 | 1020.6 |
| 20260902050524 | 56 | 265 | 0.0 | 5.0 | 0.00 | 0.00 | 0.00 | 92 | 1020.3 |
| 20260902050100 | 56 | 257 | 1.0 | 6.0 | 0.00 | 0.00 | 0.00 | 92 | 1020.4 |
| 20260902050008 | 56 | 239 | 1.0 | 6.0 | 0.00 | 0.00 | 0.00 | 92 | 1020.4 |
| 20260902045542 | 56 | 281 | 0.0 | 2.0 | 0.00 | 0.00 | 0.00 | 92 | 1020.4 |
| 20260902045050 | 56 | 257 | 0.0 | 6.0 | 0.00 | 0.00 | 0.00 | 92 | 1020.4 |
| 20260902044508 | 56 | 275 | 3.0 | 6.0 | 0.00 | 0.00 | 0.00 | 91 | 1020.4 |
| 20260902044013 | 56 | 218 | 0.0 | 0.0 | 0.00 | 0.00 | 0.00 | 91 | 1020.2 |
| 20260902043550 | 56 | 237 | 0.0 | 0.0 | 0.00 | 0.00 | 0.00 | 91 | 1020.1 |
| 20260902043119 | 56 | 246 | 0.0 | 0.0 | 0.00 | 0.00 | 0.00 | 91 | 1020.2 |
| 20260902042510 | 56 | 278 | 0.0 | 4.0 | 0.00 | 0.00 | 0.00 | 91 | 1020.3 |
| 20260902042021 | 57 | 236 | 0.0 | 7.0 | 0.00 | 0.00 | 0.00 | 91 | 1020.2 |
| 20260902041555 | 57 | 252 | 3.0 | 7.0 | 0.00 | 0.00 | 0.00 | 90 | 1020.2 |
| 20260902041040 | 57 | 267 | 2.0 | 7.0 | 0.00 | 0.00 | 0.00 | 90 | 1020.2 |
| 20260902040545 | 57 | 202 | 0.0 | 4.0 | 0.00 | 0.00 | 0.00 | 90 | 1020.2 |
| 20260902040026 | 57 | 240 | 1.0 | 5.0 | 0.00 | 0.00 | 0.00 | 90 | 1020.1 |
| 20260902035513 | 57 | 255 | 0.0 | 5.0 | 0.00 | 0.00 | 0.00 | 89 | 1020.1 |
| 20260902035048 | 57 | 259 | 1.0 | 4.0 | 0.00 | 0.00 | 0.00 | 89 | 1020.1 |
| 20260902034556 | 57 | 219 | 0.0 | 4.0 | 0.00 | 0.00 | 0.00 | 88 | 1020.0 |
| 20260902034012 | 58 | 215 | 0.0 | 3.0 | 0.00 | 0.00 | 0.00 | 88 | 1020.0 |
| 20260902033514 | 58 | 220 | 0.0 | 4.0 | 0.00 | 0.00 | 0.00 | 88 | 1020.0 |
| 20260902033050 | 58 | 227 | 0.0 | 4.0 | 0.00 | 0.00 | 0.00 | 87 | 1020.0 |
| 20260902032539 | 58 | 248 | 1.0 | 4.0 | 0.00 | 0.00 | 0.00 | 87 | 1020.0 |
| 20260902032045 | 58 | 262 | 0.0 | 7.0 | 0.00 | 0.00 | 0.00 | 87 | 1020.0 |
| 20260902031552 | 58 | 229 | 1.0 | 7.0 | 0.00 | 0.00 | 0.00 | 87 | 1020.0 |
| 20260902031054 | 58 | 227 | 3.0 | 7.0 | 0.00 | 0.00 | 0.00 | 87 | 1019.9 |
| 20260902031006 | 58 | 223 | 3.0 | 7.0 | 0.00 | 0.00 | 0.00 | 87 | 1019.9 |
| 20260902030526 | 59 | 227 | 1.0 | 7.0 | 0.00 | 0.00 | 0.00 | 86 | 1019.9 |
| 20260902030008 | 59 | 272 | 0.0 | 4.0 | 0.00 | 0.00 | 0.00 | 86 | 1020.0 |
| 20260902025548 | 59 | 215 | 0.0 | 4.0 | 0.00 | 0.00 | 0.00 | 85 | 1019.9 |
| 20260902025100 | 59 | 273 | 1.0 | 7.0 | 0.00 | 0.00 | 0.00 | 85 | 1019.9 |
| 20260902024506 | 59 | 236 | 2.0 | 7.0 | 0.00 | 0.00 | 0.00 | 85 | 1020.0 |
| 20260902024044 | 59 | 234 | 2.0 | 5.0 | 0.00 | 0.00 | 0.00 | 85 | 1019.9 |
| 20260902023526 | 59 | 217 | 2.0 | 6.0 | 0.00 | 0.00 | 0.00 | 84 | 1019.9 |
| 20260902023036 | 59 | 232 | 1.0 | 6.0 | 0.00 | 0.00 | 0.00 | 84 | 1019.9 |
| 20260902022545 | 59 | 267 | 2.0 | 7.0 | 0.00 | 0.00 | 0.00 | 84 | 1019.9 |
| 20260902022049 | 60 | 249 | 4.0 | 7.0 | 0.00 | 0.00 | 0.00 | 84 | 1019.9 |
| 20260902021531 | 60 | 255 | 3.0 | 8.0 | 0.00 | 0.00 | 0.00 | 84 | 1019.8 |
| 20260902021012 | 60 | 266 | 4.0 | 8.0 | 0.00 | 0.00 | 0.00 | 83 | 1019.8 |
| 20260902020520 | 60 | 263 | 3.0 | 9.0 | 0.00 | 0.00 | 0.00 | 83 | 1019.9 |
| 20260902020030 | 60 | 277 | 3.0 | 8.0 | 0.00 | 0.00 | 0.00 | 83 | 1019.9 |
| 20260902015536 | 60 | 267 | 4.0 | 8.0 | 0.00 | 0.00 | 0.00 | 83 | 1019.8 |
| 20260902015044 | 60 | 267 | 4.0 | 8.0 | 0.00 | 0.00 | 0.00 | 83 | 1019.8 |
| 20260902014530 | 60 | 252 | 3.0 | 8.0 | 0.00 | 0.00 | 0.00 | 83 | 1019.8 |
| 20260902014039 | 60 | 265 | 3.0 | 8.0 | 0.00 | 0.00 | 0.00 | 83 | 1019.7 |
| 20260902013546 | 60 | 285 | 3.0 | 8.0 | 0.00 | 0.00 | 0.00 | 83 | 1019.7 |
| 20260902013051 | 60 | 277 | 3.0 | 8.0 | 0.00 | 0.00 | 0.00 | 82 | 1019.7 |
| 20260902012535 | 60 | 233 | 2.0 | 8.0 | 0.00 | 0.00 | 0.00 | 82 | 1019.6 |
| 20260902012016 | 60 | 254 | 4.0 | 7.0 | 0.00 | 0.00 | 0.00 | 82 | 1019.7 |
| 20260902011522 | 60 | 234 | 3.0 | 7.0 | 0.00 | 0.00 | 0.00 | 82 | 1019.7 |
| 20260902011031 | 60 | 231 | 3.0 | 7.0 | 0.00 | 0.00 | 0.00 | 82 | 1019.7 |
| 20260902010539 | 60 | 284 | 2.0 | 5.0 | 0.00 | 0.00 | 0.00 | 82 | 1019.7 |
| 20260902010026 | 60 | 227 | 2.0 | 6.0 | 0.00 | 0.00 | 0.00 | 82 | 1019.8 |
| 20260902005530 | 60 | 238 | 3.0 | 8.0 | 0.00 | 0.00 | 0.00 | 82 | 1019.8 |
| 20260902005038 | 61 | 277 | 3.0 | 8.0 | 0.00 | 0.00 | 0.00 | 82 | 1019.8 |
| 20260902004525 | 61 | 228 | 3.0 | 10.0 | 0.00 | 0.00 | 0.00 | 82 | 1019.8 |
| 20260902004054 | 61 | 237 | 4.0 | 10.0 | 0.00 | 0.00 | 0.00 | 82 | 1019.9 |
| 20260902003556 | 61 | 223 | 3.0 | 8.0 | 0.00 | 0.00 | 0.00 | 82 | 1019.8 |
| 20260902003040 | 61 | 269 | 4.0 | 8.0 | 0.00 | 0.00 | 0.00 | 82 | 1019.8 |
| 20260902002551 | 61 | 240 | 4.0 | 9.0 | 0.00 | 0.00 | 0.00 | 82 | 1019.8 |
| 20260902002054 | 61 | 246 | 4.0 | 10.0 | 0.00 | 0.00 | 0.00 | 82 | 1019.8 |
| 20260902001536 | 61 | 257 | 5.0 | 11.0 | 0.00 | 0.00 | 0.00 | 82 | 1019.9 |
| 20260902001018 | 60 | 282 | 6.0 | 11.0 | 0.00 | 0.00 | 0.00 | 82 | 1019.9 |
| 20260902000529 | 60 | 262 | 3.0 | 12.0 | 0.00 | 0.00 | 0.00 | 83 | 1020.0 |
| 20260902000040 | 60 | 254 | 4.0 | 12.0 | 0.00 | 0.00 | 0.00 | 83 | 1019.9 |
| 20260901235519 | 60 | 220 | 6.0 | 14.0 | 0.00 | 0.00 | 0.00 | 83 | 1019.9 |
| 20260901235100 | 60 | 262 | 7.0 | 12.0 | 0.00 | 0.00 | 0.00 | 83 | 1019.8 |
| 20260901234510 | 60 | 256 | 6.0 | 11.0 | 0.00 | 0.00 | 0.00 | 83 | 1019.8 |
| 20260901234018 | 60 | 234 | 6.0 | 11.0 | 0.00 | 0.00 | 0.00 | 83 | 1019.8 |
| 20260901233530 | 60 | 285 | 4.0 | 9.0 | 0.00 | 0.00 | 0.00 | 83 | 1019.8 |
| 20260901233034 | 60 | 240 | 3.0 | 7.0 | 0.00 | 0.00 | 0.00 | 84 | 1019.7 |
| 20260901232516 | 60 | 252 | 0.0 | 6.0 | 0.00 | 0.00 | 0.00 | 84 | 1019.6 |
| 20260901232028 | 60 | 269 | 1.0 | 4.0 | 0.00 | 0.00 | 0.00 | 84 | 1019.5 |
| 20260901231541 | 60 | 273 | 1.0 | 5.0 | 0.00 | 0.00 | 0.00 | 84 | 1019.6 |
| 20260901231049 | 60 | 222 | 2.0 | 7.0 | 0.00 | 0.00 | 0.00 | 83 | 1019.5 |
| 20260901230553 | 60 | 237 | 3.0 | 7.0 | 0.00 | 0.00 | 0.00 | 83 | 1019.6 |
| 20260901230037 | 60 | 228 | 3.0 | 7.0 | 0.00 | 0.00 | 0.00 | 83 | 1019.6 |
| 20260901225546 | 60 | 229 | 2.0 | 7.0 | 0.00 | 0.00 | 0.00 | 83 | 1019.5 |
| 20260901225051 | 60 | 219 | 3.0 | 7.0 | 0.00 | 0.00 | 0.00 | 82 | 1019.6 |
| 20260901224601 | 60 | 265 | 1.0 | 4.0 | 0.00 | 0.00 | 0.00 | 82 | 1019.5 |
| 20260901224502 | 60 | 245 | 2.0 | 4.0 | 0.00 | 0.00 | 0.00 | 82 | 1019.5 |
| 20260901224013 | 61 | 229 | 1.0 | 4.0 | 0.00 | 0.00 | 0.00 | 82 | 1019.6 |
| 20260901223552 | 61 | 232 | 1.0 | 8.0 | 0.00 | 0.00 | 0.00 | 81 | 1019.5 |
| 20260901223058 | 61 | 238 | 3.0 | 8.0 | 0.00 | 0.00 | 0.00 | 81 | 1019.5 |
| 20260901222508 | 61 | 239 | 2.0 | 8.0 | 0.00 | 0.00 | 0.00 | 81 | 1019.5 |
| 20260901222013 | 61 | 211 | 3.0 | 9.0 | 0.00 | 0.00 | 0.00 | 80 | 1019.5 |
| 20260901221609 | 62 | 221 | 3.0 | 9.0 | 0.00 | 0.00 | 0.00 | 80 | 1019.6 |
| 20260901221031 | 62 | 240 | 2.0 | 7.0 | 0.00 | 0.00 | 0.00 | 80 | 1019.6 |
| 20260901220544 | 62 | 231 | 3.0 | 7.0 | 0.00 | 0.00 | 0.00 | 79 | 1019.6 |
| 20260901220101 | 62 | 245 | 4.0 | 7.0 | 0.00 | 0.00 | 0.00 | 79 | 1019.5 |
| 20260901215556 | 62 | 276 | 3.0 | 8.0 | 0.00 | 0.00 | 0.00 | 79 | 1019.6 |
| 20260901215008 | 62 | 252 | 3.0 | 7.0 | 0.00 | 0.00 | 0.00 | 79 | 1019.6 |
| 20260901214543 | 62 | 245 | 2.0 | 7.0 | 0.00 | 0.00 | 0.00 | 79 | 1019.5 |
| 20260901214025 | 62 | 260 | 3.0 | 8.0 | 0.00 | 0.00 | 0.00 | 79 | 1019.6 |
| 20260901213533 | 62 | 247 | 3.0 | 8.0 | 0.00 | 0.00 | 0.00 | 79 | 1019.5 |
| 20260901213100 | 62 | 212 | 3.0 | 8.0 | 0.00 | 0.00 | 0.00 | 79 | 1019.6 |
| 20260901212547 | 62 | 278 | 2.0 | 5.0 | 0.00 | 0.00 | 0.00 | 79 | 1019.6 |
| 20260901212030 | 62 | 275 | 0.0 | 5.0 | 0.00 | 0.00 | 0.00 | 79 | 1019.6 |
| 20260901211514 | 62 | 250 | 2.0 | 9.0 | 0.00 | 0.00 | 0.00 | 79 | 1019.6 |
| 20260901211020 | 62 | 236 | 4.0 | 9.0 | 0.00 | 0.00 | 0.00 | 79 | 1019.5 |
| 20260901210530 | 61 | 249 | 3.0 | 9.0 | 0.00 | 0.00 | 0.00 | 79 | 1019.5 |
| 20260901210037 | 61 | 265 | 4.0 | 9.0 | 0.00 | 0.00 | 0.00 | 80 | 1019.5 |
| 20260901205518 | 61 | 242 | 3.0 | 8.0 | 0.00 | 0.00 | 0.00 | 81 | 1019.5 |
| 20260901205057 | 60 | 235 | 2.0 | 5.0 | 0.00 | 0.00 | 0.00 | 81 | 1019.4 |